Regional Weather Roundup
Issued by NWS

Home | Current Version | Previous Version | Graphics & Text | Print | Product List | Glossary On
Versions: 1 2 3 4 5 6 7 8 9 10 11 12 13 14 15 16 17 18 19 20 21 22 23 24 25 26 27 28 29 30 31 32 33 34 35 36 37 38 39 40 41 42 43 44 45 46 47 48 49 50
000
ASUS43 KFSD 180902
RWRSD

WEATHER ROUNDUP FOR SOUTH DAKOTA
NATIONAL WEATHER SERVICE SIOUX FALLS SD
400 AM CDT FRI APR 18 2014

NOTE: "FAIR" INDICATES FEW OR NO CLOUDS BELOW 12,000 FEET WITH NO
SIGNIFICANT WEATHER AND/OR OBSTRUCTIONS TO VISIBILITY.


SDZ001>005-009-010-012>017-181000-
NORTHWEST AND NORTH CENTRAL SOUTH DAKOTA

CITY           SKY/WX    TMP DP  RH WIND       PRES   REMARKS
FAITH            N/A     33  25  72 SE18      29.92F WCI  22
MOBRIDGE       CLOUDY    35  24  64 SE18      30.03F WCI  24
$$

SDZ012>016-024>037-041>051-057-063-072>074-181000-
SOUTHWEST AND SOUTH CENTRAL SOUTH DAKOTA

CITY           SKY/WX    TMP DP  RH WIND       PRES   REMARKS
RAPID CTY ARPT CLEAR     35  32  88 SE3       29.86F
PIERRE         CLOUDY    37  26  64 SE16      30.01F
CUSTER         PTCLDY    34  32  92 NW3       29.88F
ELLSWORTH AFB  CLEAR     36  33  86 S8        29.85F
PHILIP         CLEAR     32  26  78 E7        29.93F WCI  26
PINE RIDGE     PTCLDY    45  37  73 S17G25    29.89S
WINNER         CLOUDY    45  28  51 S24G31    30.01F
$$

SDZ004>011-016>023-039-040-181000-
NORTHEAST SOUTH DAKOTA

CITY           SKY/WX    TMP DP  RH WIND       PRES   REMARKS
ABERDEEN       CLOUDY    34  19  54 E13       30.18F WCI  25
WATERTOWN      CLOUDY    33  14  45 SE6       30.21F WCI  28
$$

SDZ017-020-022-023-036>040-048>070-181000-
SOUTHEAST SOUTH DAKOTA

CITY           SKY/WX    TMP DP  RH WIND       PRES   REMARKS
SIOUX FALLS    CLEAR     33  27  78 E9        30.24S WCI  25
HURON          CLOUDY    34  26  72 SE14G22   30.17F WCI  25
CHAMBERLAIN      N/A     37  25  61 SE15      30.08F
MITCHELL       PTCLDY    35  27  72 SE17      30.19F WCI  25
YANKTON        CLEAR     32  25  74 E8        30.21F WCI  25
$$

ABBREVIATIONS USED IN REMARKS
   TC - TEMPERATURE IN CELSIUS
  WCI - WIND CHILL INDEX
   HX - HEAT INDEX
  VSB - VISIBILITY




USA.gov is the U.S. government's official web portal to all federal, state and local government web resources and services.